Eastsound, WA
on Friday, January 11, 2013

Friday
Previous Day Next Day
Daily Summary
 ActualAverage (KBLI)Record (KBLI)
Temperature
Mean Temperature °F 39°F  
Max Temperature 37°F 45°F 65°F (2010)
Min Temperature 26°F 33°F 10°F (1963)
Degree Days
Heating Degree Days 34 26  
Month to date heating degree days 292  
Cooling Degree Days 0 0  
Month to date cooling degree days 0  
Year to date cooling degree days 0  
Moisture
Dew Point 22°F   
Average Humidity 65    
Maximum Humidity 93    
Minimum Humidity 45    
Precipitation
Precipitation 0.00 in 0.16 in 0.61 in (1971)
Month to date precipitation 1.65  
Year to date precipitation 1.65  
Wind
Wind Speed 3 mph   
Max Wind Speed 10 mph   
Max Gust Speed 18 mph   
Visibility 10 miles   
Events     

Key: T is trace of precipitation, MM is missing value
Source: NWS Daily Summary
Time(PST)TemperatureDew PointHumidity Pressure Visibility Wind DirectionWind SpeedGust SpeedPrecipitationEvents Conditions
12:15 AM 35.6°F 24.8°F 65% 30.14 in 10.0 miles Calm Calm - N/A   Partly Cloudy
12:35 AM 33.8°F 26.6°F 75% 30.14 in 10.0 miles Calm Calm - N/A   Scattered Clouds
12:55 AM 35.6°F 24.8°F 65% 30.15 in 10.0 miles Calm Calm - N/A   Mostly Cloudy
1:15 AM 35.6°F 24.8°F 65% 30.16 in 10.0 miles Calm Calm - N/A   Scattered Clouds
1:35 AM 35.6°F 24.8°F 65% 30.16 in 10.0 miles NE 4.6 mph - N/A   Scattered Clouds
1:55 AM 35.6°F 23.0°F 60% 30.16 in 10.0 miles ENE 3.5 mph - N/A   Mostly Cloudy
2:15 AM 33.8°F 23.0°F 65% 30.17 in 10.0 miles East 3.5 mph - N/A   Scattered Clouds
2:35 AM 33.8°F 23.0°F 65% 30.17 in 10.0 miles ENE 4.6 mph - N/A   Partly Cloudy
2:55 AM 35.6°F 23.0°F 60% 30.17 in 10.0 miles ENE 4.6 mph - N/A   Clear
3:15 AM 35.6°F 23.0°F 60% 30.18 in 10.0 miles ENE 4.6 mph - N/A   Clear
3:35 AM 33.8°F 23.0°F 65% 30.18 in 10.0 miles Calm Calm - N/A   Clear
3:55 AM 33.8°F 23.0°F 65% 30.19 in 10.0 miles NE 4.6 mph - N/A   Clear
4:15 AM 33.8°F 23.0°F 65% 30.19 in 10.0 miles North 5.8 mph - N/A   Clear
4:35 AM 33.8°F 21.2°F 60% 30.19 in 10.0 miles NNE 6.9 mph - N/A   Clear
4:55 AM 33.8°F 19.4°F 56% 30.19 in 10.0 miles NNE 6.9 mph 17.3 mph N/A   Clear
5:35 AM 33.8°F 17.6°F 52% 30.20 in 10.0 miles NE 9.2 mph 18.4 mph N/A   Clear
5:55 AM 35.6°F 17.6°F 48% 30.20 in 10.0 miles NNE 9.2 mph - N/A   Clear
6:15 AM 33.8°F 19.4°F 56% 30.21 in 10.0 miles NNE 8.1 mph 16.1 mph N/A   Clear
6:35 AM 33.8°F 19.4°F 56% 30.22 in 10.0 miles NNE 4.6 mph - N/A   Clear
6:55 AM 33.8°F 21.2°F 60% 30.23 in 10.0 miles North 9.2 mph - N/A   Clear
7:15 AM 33.8°F 21.2°F 60% 30.24 in 10.0 miles North 10.4 mph - N/A   Clear
7:35 AM 33.8°F 21.2°F 60% 30.25 in 10.0 miles NE 6.9 mph - N/A   Clear
8:15 AM 33.8°F 21.2°F 60% 30.26 in 10.0 miles NE 8.1 mph - N/A   Clear
8:35 AM 32.0°F 21.2°F 64% 30.28 in 10.0 miles NE 6.9 mph - N/A   Clear
8:55 AM 32.0°F 21.2°F 64% 30.28 in 10.0 miles NNE 6.9 mph - N/A   Clear
9:15 AM 32.0°F 21.2°F 64% 30.29 in 10.0 miles ENE 3.5 mph - N/A   Clear
9:35 AM 32.0°F 19.4°F 60% 30.29 in 10.0 miles NNE 5.8 mph - N/A   Clear
9:55 AM 32.0°F 19.4°F 60% 30.30 in 10.0 miles NE 6.9 mph - N/A   Clear
10:15 AM 32.0°F 21.2°F 64% 30.30 in 10.0 miles NNE 4.6 mph - N/A   Clear
10:35 AM 32.0°F 19.4°F 60% 30.30 in 10.0 miles North 9.2 mph - N/A   Clear
10:55 AM 33.8°F 19.4°F 56% 30.31 in 10.0 miles NNE 5.8 mph - N/A   Clear
11:15 AM 33.8°F 19.4°F 56% 30.30 in 10.0 miles NNE 3.5 mph - N/A   Clear
11:35 AM 35.6°F 19.4°F 52% 30.30 in 10.0 miles North 5.8 mph - N/A   Clear
11:55 AM 35.6°F 21.2°F 56% 30.30 in 10.0 miles NNE 4.6 mph - N/A   Clear
12:15 PM 35.6°F 19.4°F 52% 30.30 in 10.0 miles North 8.1 mph - N/A   Clear
12:35 PM 35.6°F 19.4°F 52% 30.29 in 10.0 miles North 5.8 mph - N/A   Clear
12:55 PM 35.6°F 21.2°F 56% 30.29 in 10.0 miles NNE 3.5 mph - N/A   Clear
1:15 PM 35.6°F 19.4°F 52% 30.30 in 10.0 miles NNE 4.6 mph - N/A   Clear
1:35 PM 35.6°F 19.4°F 52% 30.29 in 10.0 miles NNE 3.5 mph - N/A   Clear
1:55 PM 37.4°F 19.4°F 48% 30.29 in 10.0 miles NE 5.8 mph - N/A   Clear
2:15 PM 37.4°F 21.2°F 52% 30.29 in 10.0 miles ENE 3.5 mph - N/A   Clear
2:35 PM 37.4°F 19.4°F 48% 30.30 in 10.0 miles North 3.5 mph - N/A   Clear
3:15 PM 37.4°F 19.4°F 48% 30.31 in 10.0 miles North 5.8 mph - N/A   Clear
3:35 PM 37.4°F 17.6°F 45% 30.31 in 10.0 miles NNE 4.6 mph - N/A   Clear
3:55 PM 35.6°F 19.4°F 52% 30.30 in 10.0 miles Calm Calm - N/A   Clear
4:15 PM 35.6°F 19.4°F 52% 30.31 in 10.0 miles Calm Calm - N/A   Clear
4:35 PM 35.6°F 19.4°F 52% 30.31 in 10.0 miles Calm Calm - N/A   Clear
5:15 PM 32.0°F 23.0°F 69% 30.31 in 10.0 miles Calm Calm - N/A   Clear
5:35 PM 30.2°F 23.0°F 75% 30.31 in 10.0 miles Calm Calm - N/A   Clear
5:55 PM 30.2°F 23.0°F 75% 30.30 in 10.0 miles Calm Calm - N/A   Clear
6:15 PM 30.2°F 23.0°F 75% 30.31 in 10.0 miles Calm Calm - N/A   Clear
6:35 PM 30.2°F 24.8°F 80% 30.31 in 10.0 miles Calm Calm - N/A   Clear
6:55 PM 28.4°F 24.8°F 86% 30.31 in 10.0 miles Calm Calm - N/A   Clear
7:15 PM 30.2°F 23.0°F 75% 30.30 in 10.0 miles Calm Calm - N/A   Clear
7:35 PM 28.4°F 24.8°F 86% 30.30 in 10.0 miles Calm Calm - N/A   Clear
7:55 PM 30.2°F 23.0°F 75% 30.30 in 10.0 miles Calm Calm - N/A   Clear
8:15 PM 30.2°F 23.0°F 75% 30.30 in 10.0 miles Calm Calm - N/A   Clear
8:35 PM 28.4°F 23.0°F 80% 30.30 in 10.0 miles Calm Calm - N/A   Clear
8:55 PM 28.4°F 24.8°F 86% 30.31 in 10.0 miles Calm Calm - N/A   Clear
9:15 PM 28.4°F 24.8°F 86% 30.31 in 10.0 miles North - - N/A   Clear
9:35 PM 28.4°F 24.8°F 86% 30.31 in 10.0 miles North - - N/A   Clear
9:55 PM 28.4°F 24.8°F 86% 30.31 in 10.0 miles Calm Calm - N/A   Clear
10:15 PM 28.4°F 24.8°F 86% 30.31 in 10.0 miles Calm Calm - N/A   Clear
10:35 PM 28.4°F 24.8°F 86% 30.31 in 10.0 miles Calm Calm - N/A   Clear
10:55 PM 28.4°F 24.8°F 86% 30.31 in 10.0 miles Calm Calm - N/A   Clear
11:15 PM 28.4°F 24.8°F 86% 30.31 in 10.0 miles Calm Calm - N/A   Clear
11:35 PM 26.6°F 24.8°F 93% 30.31 in 10.0 miles Calm Calm - N/A   Clear
11:55 PM 28.4°F 26.6°F 93% 30.31 in 10.0 miles Calm Calm - N/A   Clear
Moon Phase
Jan. 11 Jan. 18 Jan. 26 Feb. 03 Feb. 10
Sunrise:08:01 AM (PST) Moon Rise:07:34 AM (PST)1/11
Sunset:04:38 PM (PST) Moon Set:05:08 PM (PST)1/11

Copyright © 2014 The Weather Underground, Inc.